[[{"header":{"parameterUnit":"m.s-1","parameterCategory":1,"la1":30.2991,"la2":30.254,"lo1":-89.0895,"lo2":-89.0444,"dy":0.0017,"dx":0.0017,"nx":28,"ny":28,"refTime":"2023-09-19T21:00:00:Z","depth":0,"parameterNumber":2,"parameterNumberName":"U-component_of_WINDS"},"data":[0,0,0,0,0,0,0,0,0,0,0,0,0,0,0,0,0,0,0,0,0,0,0,0,0,0,0,0,0,0,0,0,0,0,0,0,0,0,0,0,0,0,0,0,0,0,0,0,0,0,0,0,0,0,0,0,0,0,-2.2848,-2.2848,0,-2.2842,-2.2842,-2.2842,-2.2773,-2.2772,-2.277,-2.2768,-2.2763,-2.2765,-2.2766,0,0,0,0,0,0,0,0,0,0,0,0,0,-2.2801,-2.2802,-2.2848,-2.2848,-2.2848,-2.2842,-2.2842,-2.2842,-2.2774,-2.2772,-2.277,-2.2768,-2.2763,-2.2765,-2.2767,0,0,0,0,0,0,0,0,0,0,0,0,0,-2.2811,-2.2802,-2.2848,-2.2813,-2.281,-2.2842,-2.2842,-2.2842,-2.2774,-2.2772,-2.2769,-2.2767,-2.2762,-2.2765,-2.2767,-2.2832,0,0,-2.2774,-2.2774,0,0,0,0,0,0,0,0,-2.281,-2.2812,-2.2818,-2.2815,-2.2812,-2.2806,-2.2823,-2.2839,-2.2775,-2.2788,-2.2768,-2.2765,-2.278,-2.278,-2.2785,-2.2832,-2.2832,-2.2774,-2.2775,-2.2776,-2.2777,0,0,0,0,0,0,0,-2.281,-2.2812,-2.2845,-2.2818,-2.2814,-2.2798,-2.2796,-2.2826,-2.2798,-2.2786,-2.2781,-2.2782,-2.2777,-2.2783,-2.2784,-2.2832,-2.2774,-2.2776,-2.2777,-2.2778,-2.2931,-2.2934,0,0,0,0,0,0,-2.2814,-2.2812,-2.2846,-2.2845,-2.2805,-2.2801,-2.2799,-2.281,-2.2798,-2.2793,-2.2784,-2.2778,-2.278,-2.2782,-2.2784,-2.2859,-2.2776,-2.2778,-2.2779,-2.2928,-2.2932,-2.2935,0,0,0,0,0,0,-2.2813,-2.2817,-2.2846,-2.2827,-2.283,-2.2804,-2.2817,-2.2812,-2.2817,-2.2796,-2.2791,-2.2794,-2.2778,-2.2781,-2.282,-2.2858,-2.2779,-2.2781,-2.2925,-2.2929,-2.2933,-2.3009,0,0,0,0,0,0,-2.2812,-2.2817,-2.2842,-2.2828,-2.2831,-2.2882,-2.282,-2.2813,-2.2821,-2.2814,-2.2804,-2.28,-2.2777,-2.2817,-2.2823,-2.2859,-2.2783,-2.2922,-2.2927,-2.2932,-2.3004,-2.3016,-2.3026,0,0,0,0,0,-2.281,-2.2864,-2.2843,-2.2848,-2.2861,-2.2885,-2.2886,-2.2857,-2.2824,-2.2848,-2.2835,-2.2801,-2.2853,-2.2822,-2.2827,-2.2865,-2.2919,-2.2926,-2.2931,-2.2998,-2.3013,-2.3026,0,0,0,0,0,0,-2.2883,-2.2862,-2.2838,-2.2889,-2.2889,-2.2873,-2.2903,-2.2874,-2.2884,-2.2877,-2.2841,-2.284,-2.2885,-2.2879,-2.2845,-2.2927,-2.288,-2.2888,-2.2929,-2.2943,-2.2954,-2.2954,-2.2785,0,0,0,0,0,-2.2905,-2.2926,-2.2906,-2.2953,-2.2954,-2.2929,-2.2938,-2.2916,-2.2914,-2.2914,-2.2903,-2.2904,-2.292,-2.2931,-2.2945,-2.3003,-2.2999,-2.3031,-2.3043,-2.3052,-2.3059,-2.3088,-2.3102,-2.2955,-2.2955,-2.2955,0,0,-2.295,-2.2941,-2.2957,-2.2967,-2.2964,-2.2987,-2.2929,-2.2955,-2.2971,-2.2918,-2.2954,-2.2947,-2.2945,-2.2993,-2.3014,-2.299,-2.3099,-2.306,-2.3068,-2.3069,-2.3096,-2.311,-2.3122,-2.2959,-2.2958,-2.2958,0,0,-2.3044,-2.304,-2.3078,-2.3076,-2.3072,-2.3055,-2.3065,-2.3053,-2.3045,-2.3081,-2.3041,-2.306,-2.309,-2.3089,-2.3093,-2.3187,-2.3156,-2.3193,-2.3251,-2.328,-2.3292,-2.3302,-2.3334,-2.3347,-2.32,-2.32,-2.32,0,-2.3101,-2.3133,-2.3101,-2.3129,-2.3135,-2.3088,-2.3125,-2.3126,-2.3127,-2.3132,-2.3105,-2.314,-2.3136,-2.3183,-2.3206,-2.3211,-2.322,-2.3193,-2.3293,-2.3302,-2.3311,-2.3342,-2.3354,-2.3204,-2.3204,-2.3203,-2.3203,0,-2.3202,-2.3225,-2.3256,-2.3258,-2.3267,-2.3301,-2.3274,-2.3287,-2.3265,-2.325,-2.3287,-2.328,-2.3291,-2.3301,-2.328,-2.3346,-2.333,-2.3299,-2.325,-2.333,-2.3358,-2.337,-2.3211,-2.3209,-2.3208,-2.3207,0,0,-2.3341,-2.3325,-2.3337,-2.3337,-2.3329,-2.3346,-2.3378,-2.3388,-2.34,-2.3403,-2.3427,-2.3453,-2.3423,-2.3428,-2.3406,-2.3431,-2.3505,-2.3396,-2.3396,-2.3416,-2.3576,-2.36,-2.3614,-2.3485,-2.3487,-2.3489,-2.3576,0,-2.3431,-2.3482,-2.3455,-2.351,-2.353,-2.3485,-2.3512,-2.3511,-2.3499,-2.3514,-2.3501,-2.3519,-2.3479,-2.3481,-2.3505,-2.3491,-2.3537,-2.3485,-2.3507,-2.3508,-2.3508,-2.3629,-2.3653,-2.3736,-2.3587,-2.3589,-2.359,0,-2.3542,-2.3549,-2.3606,-2.3594,-2.3602,-2.3626,-2.3633,-2.3649,-2.3646,-2.3635,-2.364,-2.3612,-2.3642,-2.3595,-2.3635,-2.36,-2.3608,-2.3603,-2.3606,-2.3606,-2.3553,-2.3631,-2.3762,-2.3775,-2.3608,-2.3606,-2.3605,0,-2.3637,-2.366,-2.3697,-2.3699,-2.3686,-2.3704,-2.37,-2.3694,-2.3702,-2.3709,-2.3714,-2.3724,-2.3729,-2.3738,-2.3713,-2.3682,-2.3757,-2.3708,-2.3749,-2.3749,-2.3766,-2.3765,-2.3899,-2.3773,-2.3772,-2.3772,-2.3772,0,-2.3739,-2.3776,-2.3739,-2.3762,-2.3801,-2.3769,-2.3809,-2.38,-2.3796,-2.3816,-2.3779,-2.3799,-2.3765,-2.3782,-2.3763,-2.3799,-2.3802,-2.3794,-2.3788,-2.3797,-2.3797,-2.38,-2.3794,-2.3776,-2.3775,-2.3774,-2.3774,0,-2.3851,-2.3828,-2.3865,-2.385,-2.3847,-2.3876,-2.3863,-2.3884,-2.3869,-2.3895,-2.3899,-2.3876,-2.3894,-2.387,-2.3886,-2.3873,-2.3921,-2.3908,-2.3922,-2.3918,-2.3959,-2.3955,-2.4099,-2.4116,-2.398,-2.3981,-2.3983,0,-2.3917,-2.3944,-2.3931,-2.3942,-2.3939,-2.3957,-2.3965,-2.3934,-2.3944,-2.3943,-2.3963,-2.3977,-2.3987,-2.4017,-2.4002,-2.4014,-2.3999,-2.4049,-2.4001,-2.4008,-2.3999,-2.3997,-2.3999,-2.4058,-2.406,-2.4061,-2.4062,0,-2.4037,-2.4024,-2.4036,-2.4045,-2.4054,-2.406,-2.4062,-2.4073,-2.4041,-2.4054,-2.4071,-2.4078,-2.4094,-2.4108,-2.4116,-2.4111,-2.4082,-2.4078,-2.4088,-2.4096,-2.4103,-2.4099,-2.3948,-2.4074,-2.4073,-2.4072,-2.4072,-2.4071,-2.4128,-2.4149,-2.4143,-2.4158,-2.4156,-2.4159,-2.4177,-2.4164,-2.4178,-2.4187,-2.4169,-2.419,-2.4187,-2.4193,-2.4193,-2.4209,-2.4188,-2.4202,-2.4206,-2.4209,-2.4215,-2.4101,-2.4211,-2.421,-2.421,-2.421,-2.4209,0,-2.4245,-2.4239,-2.4252,-2.4256,-2.4268,-2.4238,-2.424,-2.4251,-2.427,-2.4269,-2.4279,-2.4299,-2.4313,-2.4298,-2.4309,-2.4326,-2.4312,-2.4329,-2.4327,-2.4327,-2.4234,-2.4224,-2.434,-2.434,-2.434,-2.434,-2.434,-2.434,-2.4307,-2.4341,-2.4328,-2.4361,-2.4354,-2.4375,-2.4378,-2.438,-2.4379,-2.4402,-2.4413,-2.4403,-2.4397,-2.4407,-2.4419,-2.4414,-2.442,-2.4442,-2.4432,-2.4346,-2.4333,-2.4321,-2.4311,-2.4443,-2.4443,-2.4523,-2.4524,-2.4524]},{"header":{"parameterUnit":"m.s-1","parameterCategory":1,"la1":30.2991,"la2":30.254,"lo1":-89.0895,"lo2":-89.0444,"dy":0.0017,"dx":0.0017,"nx":28,"ny":28,"refTime":"2023-09-19T21:00:00:Z","depth":0,"parameterNumber":3,"parameterNumberName":"V-component_of_WINDS"},"data":[0,0,0,0,0,0,0,0,0,0,0,0,0,0,0,0,0,0,0,0,0,0,0,0,0,0,0,0,0,0,0,0,0,0,0,0,0,0,0,0,0,0,0,0,0,0,0,0,0,0,0,0,0,0,0,0,0,0,3.0028,3.0028,0,3.0036,3.0037,3.0037,3.0024,3.0024,3.0023,3.0023,3.003,3.003,3.0031,0,0,0,0,0,0,0,0,0,0,0,0,0,2.9998,2.9999,3.0028,3.0028,3.0028,3.0036,3.0037,3.0037,3.0024,3.0023,3.0023,3.0022,3.003,3.003,3.0031,0,0,0,0,0,0,0,0,0,0,0,0,0,3.001,2.9999,3.0028,3.0023,3.0023,3.0036,3.0037,3.0037,3.0024,3.0023,3.0023,3.0022,3.0029,3.003,3.0031,3.005,0,0,3.0034,3.0034,0,0,0,0,0,0,0,0,3.0009,3.0011,3.0024,3.0023,3.0023,3.0029,3.0029,3.0041,3.0024,3.0023,3.0023,3.0022,3.003,3.0031,3.0034,3.005,3.0051,3.0034,3.0035,3.0035,3.0035,0,0,0,0,0,0,0,3.0008,3.001,3.0031,3.0024,3.0023,3.0019,3.002,3.0031,3.003,3.0024,3.0023,3.0024,3.0029,3.0033,3.0034,3.0051,3.0034,3.0035,3.0035,3.0036,3.0081,3.0082,0,0,0,0,0,0,3.0008,3.001,3.0031,3.0032,3.0014,3.0021,3.0021,3.0027,3.003,3.003,3.0024,3.0023,3.0032,3.0033,3.0034,3.0054,3.0035,3.0036,3.0036,3.008,3.0081,3.0082,0,0,0,0,0,0,3.0008,3.001,3.0031,3.002,3.0023,3.0022,3.0028,3.0028,3.0031,3.0031,3.003,3.0028,3.0031,3.0033,3.0046,3.0055,3.0036,3.0037,3.008,3.0081,3.0082,3.0097,0,0,0,0,0,0,3.0007,3.001,3.0018,3.0021,3.0023,3.0043,3.0029,3.0029,3.0033,3.0031,3.0034,3.0034,3.0031,3.0044,3.0047,3.0055,3.0038,3.0079,3.008,3.0081,3.0095,3.0098,3.01,0,0,0,0,0,3.0006,3.0022,3.0018,3.0021,3.0033,3.0044,3.0045,3.0041,3.0034,3.0041,3.004,3.0034,3.0054,3.0046,3.0048,3.0058,3.0078,3.008,3.0081,3.0094,3.0098,3.01,0,0,0,0,0,0,3.002,3.0022,3.0018,3.0036,3.004,3.0041,3.005,3.0045,3.0051,3.0049,3.0044,3.0045,3.0059,3.006,3.0051,3.0075,3.0065,3.0067,3.0074,3.0077,3.0079,3.0078,3.0038,0,0,0,0,0,3.0025,3.0034,3.0036,3.0051,3.0053,3.0051,3.0056,3.0053,3.0056,3.0058,3.0058,3.0062,3.0068,3.0073,3.0079,3.0096,3.0095,3.0103,3.0106,3.0108,3.0109,3.0117,3.012,3.0087,3.0087,3.0087,0,0,3.0036,3.0038,3.0044,3.0054,3.0056,3.0065,3.0053,3.0063,3.0068,3.0059,3.0071,3.0072,3.0075,3.0089,3.0096,3.009,3.0118,3.011,3.0112,3.0112,3.0118,3.0121,3.0124,3.0088,3.0088,3.0088,0,0,3.0059,3.0063,3.0075,3.0078,3.0082,3.008,3.0083,3.0086,3.0086,3.0098,3.0091,3.0097,3.011,3.0112,3.0114,3.0138,3.0131,3.014,3.0153,3.016,3.0162,3.0164,3.0171,3.0174,3.0142,3.0142,3.0142,0,3.0071,3.0085,3.0082,3.0091,3.0095,3.0088,3.0099,3.0102,3.0108,3.011,3.0104,3.0118,3.012,3.0134,3.014,3.0143,3.0145,3.0139,3.0162,3.0164,3.0166,3.0173,3.0175,3.0143,3.0142,3.0142,3.0142,0,3.0099,3.0108,3.0117,3.0123,3.0128,3.0138,3.0136,3.0141,3.0138,3.0137,3.0149,3.015,3.0156,3.016,3.0157,3.0173,3.0169,3.0163,3.0152,3.017,3.0176,3.0179,3.0144,3.0144,3.0143,3.0143,0,0,3.013,3.0134,3.0137,3.0139,3.0143,3.0149,3.0159,3.0165,3.0169,3.0173,3.0181,3.0191,3.0185,3.0188,3.0185,3.0191,3.0207,3.0184,3.0184,3.0187,3.0224,3.0227,3.023,3.0204,3.0204,3.0205,3.0223,0,3.0152,3.0169,3.0167,3.0183,3.019,3.0183,3.0191,3.0194,3.0194,3.0199,3.0198,3.0205,3.0198,3.0199,3.0205,3.0204,3.0214,3.0203,3.0209,3.0209,3.0207,3.0233,3.0237,3.0254,3.0225,3.0226,3.0226,0,3.0179,3.0184,3.0202,3.0203,3.0206,3.0214,3.0218,3.0224,3.0227,3.0226,3.0229,3.0224,3.0233,3.0223,3.0235,3.0227,3.0229,3.0229,3.023,3.0229,3.0218,3.0232,3.026,3.0262,3.023,3.0229,3.0229,0,3.0198,3.021,3.0221,3.0223,3.0225,3.0231,3.0232,3.0234,3.0237,3.0241,3.0243,3.0248,3.025,3.0254,3.0251,3.0244,3.0262,3.0252,3.026,3.026,3.0263,3.0263,3.029,3.0267,3.0267,3.0267,3.0267,0,3.0222,3.0232,3.0229,3.0236,3.0247,3.0243,3.0254,3.0254,3.0256,3.0262,3.0256,3.0262,3.0258,3.0263,3.0261,3.0269,3.0271,3.027,3.0268,3.0269,3.0269,3.0269,3.0268,3.0268,3.0268,3.0268,3.0268,0,3.0244,3.0243,3.0254,3.0256,3.0256,3.0264,3.0265,3.027,3.027,3.0277,3.0279,3.0277,3.0282,3.028,3.0286,3.0284,3.0295,3.0293,3.0294,3.0293,3.03,3.0299,3.0328,3.0331,3.0308,3.0308,3.0308,0,3.0258,3.0266,3.0268,3.0271,3.0273,3.0279,3.0283,3.028,3.0283,3.0286,3.0291,3.0296,3.03,3.0309,3.0308,3.0312,3.031,3.032,3.031,3.031,3.0308,3.0307,3.0307,3.0321,3.0321,3.0321,3.0322,0,3.0283,3.0281,3.0287,3.0291,3.0296,3.0299,3.0302,3.0306,3.0302,3.0307,3.0312,3.0315,3.0321,3.0326,3.033,3.033,3.0325,3.0325,3.0327,3.0327,3.0326,3.0325,3.0297,3.0324,3.0324,3.0323,3.0323,3.0323,3.03,3.0306,3.0308,3.0314,3.0316,3.0318,3.0324,3.0323,3.0328,3.0333,3.0331,3.0337,3.0338,3.0343,3.0344,3.0348,3.0344,3.0347,3.0348,3.0348,3.0348,3.0327,3.0349,3.0349,3.0349,3.0349,3.0349,0,3.0323,3.0324,3.0329,3.0333,3.0337,3.0333,3.0336,3.034,3.0345,3.0347,3.0351,3.0357,3.0362,3.0361,3.0365,3.0369,3.0366,3.037,3.0368,3.0368,3.0352,3.035,3.0371,3.0371,3.0371,3.0371,3.0371,3.0371,3.0335,3.0344,3.0343,3.0353,3.0354,3.036,3.0362,3.0364,3.0365,3.0372,3.0376,3.0376,3.0377,3.038,3.0384,3.0384,3.0385,3.0389,3.0387,3.0372,3.037,3.0367,3.0365,3.0389,3.0389,3.0403,3.0403,3.0403]}]]